• în România
  • Lista ţărilor
  • Pe 7 zile
  • Temperatura apei
  • Hartă satelitară
  • Meteo pe hartă
  • Widget-uri
  • user-avatar
    Intrare

    Meteo pe oră la Brussels

    Astăzi, 17 Octombrie, Marţi

    Timp Temperatura Precipitaţii Vânt Presiune Umiditate
    00:00 +16°C° 0 mm 3 m/s 763 mmHg 87%
    01:00 +16°C° 0 mm 3 m/s 763 mmHg 86%
    02:00 +15°C° 0 mm 2 m/s 763 mmHg 86%
    03:00 +15°C° 0 mm 2 m/s 763 mmHg 85%
    04:00 +14°C° 0 mm 2 m/s 763 mmHg 85%
    05:00 +14°C° 0 mm 2 m/s 763 mmHg 85%
    06:00 +13°C° 0 mm 1 m/s 763 mmHg 83%
    07:00 +14°C° 0 mm 2 m/s 763 mmHg 78%
    08:00 +16°C° 0 mm 2 m/s 763 mmHg 73%
    09:00 +17°C° 0 mm 2 m/s 763 mmHg 69%
    10:00 +18°C° 0 mm 2 m/s 763 mmHg 65%
    11:00 +19°C° 0 mm 2 m/s 762 mmHg 62%
    12:00 +20°C° 0 mm 2 m/s 762 mmHg 59%
    13:00 +20°C° 0 mm 2 m/s 762 mmHg 60%
    14:00 +22°C° 0 mm 1 m/s 761 mmHg 61%
    15:00 +22°C° 0 mm 1 m/s 761 mmHg 61%
    16:00 +20°C° 0 mm 1 m/s 760 mmHg 66%
    17:00 +19°C° 0 mm 1 m/s 760 mmHg 71%
    18:00 +16°C° 0 mm 2 m/s 760 mmHg 75%
    19:00 +16°C° 0 mm 2 m/s 760 mmHg 76%
    20:00 +16°C° 0 mm 2 m/s 760 mmHg 76%
    21:00 +16°C° 0 mm 2 m/s 760 mmHg 76%
    22:00 +15°C° 0 mm 2 m/s 759 mmHg 79%
    23:00 +15°C° 0 mm 2 m/s 759 mmHg 81%

    Mâine, 18 Octombrie, Miercuri

    Timp Temperatura Precipitaţii Vânt Presiune Umiditate
    00:00 +15°C° 0 mm 2 m/s 759 mmHg 83%
    01:00 +14°C° 0 mm 2 m/s 758 mmHg 85%
    02:00 +14°C° 0 mm 2 m/s 758 mmHg 87%
    03:00 +14°C° 0 mm 2 m/s 757 mmHg 89%
    04:00 +13°C° 0 mm 2 m/s 757 mmHg 88%
    05:00 +13°C° 0 mm 2 m/s 757 mmHg 87%
    06:00 +13°C° 0 mm 2 m/s 757 mmHg 86%
    07:00 +14°C° 0 mm 2 m/s 757 mmHg 81%
    08:00 +14°C° 0 mm 3 m/s 757 mmHg 76%
    09:00 +17°C° 0 mm 3 m/s 757 mmHg 70%
    10:00 +18°C° 0 mm 3 m/s 757 mmHg 68%
    11:00 +19°C° 0 mm 3 m/s 756 mmHg 66%
    12:00 +21°C° 0 mm 3 m/s 756 mmHg 64%
    13:00 +21°C° 0 mm 3 m/s 756 mmHg 65%
    14:00 +21°C° 0 mm 3 m/s 756 mmHg 67%
    15:00 +21°C° 0 mm 2 m/s 756 mmHg 69%
    16:00 +20°C° 0 mm 2 m/s 756 mmHg 74%
    17:00 +18°C° 0 mm 2 m/s 756 mmHg 80%
    18:00 +18°C° 0 mm 1 m/s 756 mmHg 86%
    19:00 +16°C° 0 mm 2 m/s 756 mmHg 87%
    20:00 +16°C° 0 mm 2 m/s 756 mmHg 88%
    21:00 +16°C° 0 mm 2 m/s 756 mmHg 88%
    22:00 +15°C° 0 mm 2 m/s 756 mmHg 88%
    23:00 +15°C° 0 mm 2 m/s 756 mmHg 87%

    Poimâine, 19 Octombrie, Joi

    Timp Temperatura Precipitaţii Vânt Presiune Umiditate
    00:00 +14°C° 0 mm 2 m/s 756 mmHg 87%
    01:00 +14°C° 0 mm 2 m/s 755 mmHg 87%
    02:00 +14°C° 0 mm 2 m/s 755 mmHg 87%
    03:00 +13°C° 0 mm 2 m/s 755 mmHg 87%
    04:00 +13°C° 0 mm 2 m/s 755 mmHg 87%
    05:00 +13°C° 0 mm 2 m/s 755 mmHg 87%
    06:00 +11°C° 0 mm 3 m/s 754 mmHg 88%
    07:00 +13°C° 0 mm 3 m/s 754 mmHg 82%
    08:00 +15°C° 0 mm 4 m/s 754 mmHg 77%
    09:00 +17°C° 0 mm 4 m/s 754 mmHg 72%
    10:00 +17°C° 0 mm 5 m/s 754 mmHg 69%
    11:00 +20°C° 0 mm 5 m/s 754 mmHg 67%
    12:00 +21°C° 0 mm 5 m/s 754 mmHg 64%
    13:00 +21°C° 0 mm 5 m/s 753 mmHg 66%
    14:00 +21°C° 0 mm 5 m/s 753 mmHg 68%
    15:00 +21°C° 0 mm 4 m/s 753 mmHg 70%
    16:00 +20°C° 0 mm 4 m/s 753 mmHg 72%
    17:00 +19°C° 0 mm 4 m/s 753 mmHg 74%
    18:00 +17°C° 0 mm 5 m/s 753 mmHg 76%
    19:00 +17°C° 0 mm 5 m/s 753 mmHg 76%
    20:00 +16°C° 0 mm 5 m/s 753 mmHg 75%
    21:00 +16°C° 0 mm 6 m/s 754 mmHg 75%
    22:00 +16°C° 0 mm 6 m/s 754 mmHg 78%
    23:00 +16°C° 0 mm 5 m/s 753 mmHg 80%

    20 Octombrie, Vineri

    Timp Temperatura Precipitaţii Vânt Presiune Umiditate
    00:00 +15°C° 0 mm 5 m/s 753 mmHg 83%
    01:00 +15°C° 0 mm 6 m/s 753 mmHg 83%
    02:00 +15°C° 0 mm 6 m/s 753 mmHg 82%
    03:00 +15°C° 0 mm 7 m/s 753 mmHg 82%
    04:00 +15°C° 0,4 mm 7 m/s 753 mmHg 82%
    05:00 +15°C° 0,4 mm 7 m/s 753 mmHg 82%
    06:00 +15°C° 0,4 mm 8 m/s 754 mmHg 82%
    07:00 +15°C° 0,1 mm 7 m/s 754 mmHg 82%
    08:00 +15°C° 0,1 mm 7 m/s 755 mmHg 82%
    09:00 +15°C° 0,1 mm 7 m/s 755 mmHg 82%
    10:00 +16°C° 0,1 mm 7 m/s 755 mmHg 79%
    11:00 +17°C° 0,1 mm 6 m/s 756 mmHg 76%
    12:00 +17°C° 0,1 mm 6 m/s 756 mmHg 73%
    13:00 +17°C° 0,1 mm 6 m/s 756 mmHg 73%
    14:00 +17°C° 0,1 mm 5 m/s 756 mmHg 74%
    15:00 +17°C° 0,1 mm 5 m/s 756 mmHg 75%
    16:00 +17°C° 0,1 mm 5 m/s 756 mmHg 78%
    17:00 +17°C° 0,1 mm 4 m/s 756 mmHg 82%
    18:00 +17°C° 0,1 mm 4 m/s 756 mmHg 85%
    19:00 +16°C° 0,1 mm 5 m/s 755 mmHg 84%
    20:00 +16°C° 0,1 mm 5 m/s 755 mmHg 82%
    21:00 +16°C° 0,1 mm 5 m/s 755 mmHg 81%
    22:00 +16°C° 0 mm 5 m/s 755 mmHg 80%
    23:00 +16°C° 0 mm 5 m/s 755 mmHg 79%

    21 Octombrie, Sâmbătă

    Timp Temperatura Precipitaţii Vânt Presiune Umiditate
    00:00 +16°C° 0 mm 5 m/s 754 mmHg 78%
    01:00 +16°C° 0,4 mm 6 m/s 754 mmHg 78%
    02:00 +16°C° 0,4 mm 6 m/s 754 mmHg 79%
    03:00 +16°C° 0,4 mm 6 m/s 753 mmHg 80%
    04:00 +16°C° 1 mm 6 m/s 753 mmHg 83%
    05:00 +16°C° 1 mm 6 m/s 753 mmHg 85%
    06:00 +16°C° 1 mm 6 m/s 753 mmHg 88%
    07:00 +15°C° 0,7 mm 6 m/s 754 mmHg 87%
    08:00 +15°C° 0,7 mm 5 m/s 754 mmHg 85%
    09:00 +15°C° 0,7 mm 5 m/s 754 mmHg 83%
    10:00 +15°C° 0 mm 6 m/s 755 mmHg 76%
    11:00 +16°C° 0 mm 7 m/s 755 mmHg 69%
    12:00 +16°C° 0 mm 8 m/s 755 mmHg 61%
    13:00 +16°C° 0 mm 8 m/s 755 mmHg 60%
    14:00 +16°C° 0 mm 7 m/s 755 mmHg 59%
    15:00 +16°C° 0 mm 7 m/s 755 mmHg 59%
    16:00 +15°C° 0 mm 6 m/s 755 mmHg 59%
    17:00 +14°C° 0 mm 6 m/s 755 mmHg 60%
    18:00 +13°C° 0 mm 6 m/s 756 mmHg 61%
    19:00 +13°C° 0 mm 6 m/s 756 mmHg 61%
    20:00 +11°C° 0 mm 7 m/s 756 mmHg 61%
    21:00 +11°C° 0 mm 7 m/s 756 mmHg 62%
    22:00 +10°C° 0 mm 7 m/s 756 mmHg 64%
    23:00 +10°C° 0 mm 7 m/s 756 mmHg 66%

    22 Octombrie, Duminică

    Timp Temperatura Precipitaţii Vânt Presiune Umiditate
    00:00 +10°C° 0 mm 7 m/s 756 mmHg 68%
    01:00 +9°C° 0 mm 7 m/s 757 mmHg 69%
    02:00 +9°C° 0 mm 7 m/s 757 mmHg 70%
    03:00 +9°C° 0 mm 7 m/s 757 mmHg 71%
    04:00 +9°C° 0 mm 7 m/s 757 mmHg 72%
    05:00 +9°C° 0 mm 7 m/s 757 mmHg 73%
    06:00 +9°C° 0 mm 7 m/s 758 mmHg 73%
    07:00 +9°C° 0 mm 7 m/s 758 mmHg 71%
    08:00 +10°C° 0 mm 8 m/s 759 mmHg 69%
    09:00 +11°C° 0 mm 8 m/s 759 mmHg 67%
    10:00 +11°C° 0,1 mm 8 m/s 759 mmHg 63%
    11:00 +12°C° 0,1 mm 8 m/s 760 mmHg 60%
    12:00 +12°C° 0,1 mm 8 m/s 760 mmHg 57%
    13:00 +12°C° 0,1 mm 7 m/s 760 mmHg 58%
    14:00 +12°C° 0,1 mm 7 m/s 760 mmHg 60%
    15:00 +11°C° 0,1 mm 6 m/s 761 mmHg 61%
    16:00 +10°C° 0,1 mm 5 m/s 761 mmHg 65%
    17:00 +9°C° 0,1 mm 5 m/s 762 mmHg 68%
    18:00 +8°C° 0,1 mm 4 m/s 762 mmHg 72%
    19:00 +8°C° 0 mm 4 m/s 762 mmHg 73%
    20:00 +8°C° 0 mm 4 m/s 763 mmHg 75%
    21:00 +8°C° 0 mm 4 m/s 763 mmHg 77%
    22:00 +7°C° 0 mm 4 m/s 763 mmHg 80%
    23:00 +7°C° 0 mm 4 m/s 763 mmHg 83%
    Arată mai mult